[[{"header":{"parameterUnit":"m.s-1","parameterCategory":1,"la1":30.2991,"la2":30.254,"lo1":-89.0895,"lo2":-89.0444,"dy":0.0017,"dx":0.0017,"nx":28,"ny":28,"refTime":"2023-10-01T03:00:00:Z","depth":0,"parameterNumber":2,"parameterNumberName":"U-component_of_WINDS"},"data":[0,0,0,0,0,0,0,0,0,0,0,0,0,0,0,0,0,0,0,0,0,0,0,0,0,0,0,0,0,0,0,0,0,0,0,0,0,0,0,0,0,0,0,0,0,0,0,0,0,0,0,0,0,0,0,0,0,0,-5.0604,-5.0605,0,-5.0665,-5.0665,-5.0666,-5.0492,-5.0487,-5.0482,-5.0476,-5.0542,-5.0548,-5.0555,0,0,0,0,0,0,0,0,0,0,0,0,0,-5.034,-5.0346,-5.0604,-5.0605,-5.0605,-5.0664,-5.0665,-5.0666,-5.0493,-5.0487,-5.048,-5.0474,-5.054,-5.0547,-5.0556,0,0,0,0,0,0,0,0,0,0,0,0,0,-5.0434,-5.0348,-5.0604,-5.0526,-5.052,-5.0664,-5.0665,-5.0666,-5.0495,-5.0487,-5.0478,-5.0471,-5.0537,-5.0547,-5.0557,-5.078,0,0,-5.0587,-5.0592,0,0,0,0,0,0,0,0,-5.0429,-5.0443,-5.0537,-5.0532,-5.0525,-5.0562,-5.0596,-5.0704,-5.0497,-5.0504,-5.0476,-5.0467,-5.0555,-5.0563,-5.0592,-5.0783,-5.0786,-5.0588,-5.0594,-5.0599,-5.0602,0,0,0,0,0,0,0,-5.0422,-5.044,-5.0628,-5.0538,-5.0531,-5.0489,-5.0493,-5.0616,-5.0574,-5.0503,-5.0491,-5.05,-5.0551,-5.0583,-5.0593,-5.0787,-5.0588,-5.0597,-5.0603,-5.0607,-5.1163,-5.1171,0,0,0,0,0,0,-5.0426,-5.0436,-5.0626,-5.063,-5.0456,-5.05,-5.0505,-5.0559,-5.0572,-5.0567,-5.0507,-5.0492,-5.057,-5.0581,-5.0594,-5.0856,-5.0599,-5.0608,-5.0614,-5.1154,-5.1164,-5.1174,0,0,0,0,0,0,-5.0421,-5.0444,-5.0623,-5.0529,-5.0549,-5.0513,-5.0575,-5.0564,-5.0596,-5.0575,-5.0567,-5.0548,-5.0564,-5.058,-5.0735,-5.0856,-5.0613,-5.0622,-5.1144,-5.1157,-5.1169,-5.1383,0,0,0,0,0,0,-5.0414,-5.0443,-5.0528,-5.0532,-5.0555,-5.0763,-5.0582,-5.0571,-5.0614,-5.0595,-5.0611,-5.0607,-5.0559,-5.0721,-5.0745,-5.0866,-5.063,-5.1133,-5.115,-5.1165,-5.1365,-5.1401,-5.1433,0,0,0,0,0,-5.0405,-5.0586,-5.0533,-5.0557,-5.0659,-5.077,-5.0783,-5.0724,-5.0625,-5.0709,-5.0695,-5.0606,-5.0839,-5.0738,-5.0764,-5.089,-5.1125,-5.1145,-5.1164,-5.1349,-5.1394,-5.1432,0,0,0,0,0,0,-5.0597,-5.0585,-5.0526,-5.0714,-5.0744,-5.0741,-5.0845,-5.0773,-5.0833,-5.0813,-5.0737,-5.0743,-5.0911,-5.0915,-5.0803,-5.1106,-5.0965,-5.0991,-5.1097,-5.114,-5.1173,-5.1169,-5.0638,0,0,0,0,0,-5.0661,-5.0752,-5.0737,-5.0904,-5.0922,-5.0882,-5.0928,-5.088,-5.0908,-5.0921,-5.0918,-5.0951,-5.103,-5.1085,-5.1158,-5.1364,-5.1365,-5.1463,-5.1497,-5.1526,-5.1549,-5.1658,-5.1702,-5.1238,-5.1238,-5.1238,0,0,-5.0795,-5.08,-5.0862,-5.0943,-5.0961,-5.1057,-5.0894,-5.1003,-5.1073,-5.0937,-5.1083,-5.1083,-5.1113,-5.1295,-5.1375,-5.1304,-5.1677,-5.1551,-5.1573,-5.1581,-5.1683,-5.1727,-5.1766,-5.1251,-5.1249,-5.1247,0,0,-5.1088,-5.1101,-5.1241,-5.1262,-5.1291,-5.1262,-5.1297,-5.1304,-5.1298,-5.1442,-5.1342,-5.1426,-5.1566,-5.1592,-5.1623,-5.1926,-5.1846,-5.1952,-5.213,-5.2238,-5.2275,-5.2307,-5.2415,-5.2455,-5.1975,-5.1975,-5.1976,0,-5.1251,-5.1391,-5.1323,-5.1439,-5.1477,-5.1357,-5.1499,-5.1523,-5.1575,-5.1605,-5.1524,-5.1697,-5.1709,-5.1895,-5.1969,-5.1998,-5.2035,-5.195,-5.2275,-5.2306,-5.2335,-5.2437,-5.2478,-5.1988,-5.1986,-5.1985,-5.1984,0,-5.159,-5.1689,-5.18,-5.1851,-5.1902,-5.2031,-5.1982,-5.2042,-5.199,-5.197,-5.2119,-5.2129,-5.2202,-5.2242,-5.2192,-5.2422,-5.2377,-5.2287,-5.2144,-5.2393,-5.2488,-5.2527,-5.2006,-5.2001,-5.1998,-5.1995,0,0,-5.2007,-5.2019,-5.206,-5.2082,-5.2105,-5.218,-5.2303,-5.2373,-5.2426,-5.2466,-5.2568,-5.2689,-5.2605,-5.2641,-5.2593,-5.2688,-5.2927,-5.2585,-5.2585,-5.2649,-5.3181,-5.3249,-5.3295,-5.2874,-5.2881,-5.2887,-5.3178,0,-5.2296,-5.2506,-5.2448,-5.2658,-5.2749,-5.2636,-5.2743,-5.2769,-5.2754,-5.2829,-5.2813,-5.29,-5.2783,-5.2804,-5.2892,-5.2879,-5.3033,-5.2857,-5.2969,-5.2973,-5.2965,-5.3345,-5.3417,-5.3692,-5.3215,-5.3221,-5.3226,0,-5.2661,-5.2714,-5.2934,-5.294,-5.2976,-5.3074,-5.3133,-5.3206,-5.3233,-5.3216,-5.3256,-5.3188,-5.331,-5.3166,-5.3333,-5.3215,-5.3257,-5.3258,-5.3267,-5.3275,-5.3115,-5.3365,-5.3778,-5.382,-5.3283,-5.3279,-5.3275,0,-5.2944,-5.307,-5.3217,-5.3239,-5.3251,-5.3322,-5.3331,-5.335,-5.3395,-5.3447,-5.3476,-5.3543,-5.3579,-5.3632,-5.3585,-5.3484,-5.376,-5.3611,-5.3749,-5.3751,-5.3813,-5.381,-5.424,-5.384,-5.384,-5.3839,-5.3838,0,-5.3273,-5.3412,-5.3344,-5.3435,-5.3587,-5.3519,-5.3672,-5.3667,-5.3685,-5.3774,-5.368,-5.3765,-5.3697,-5.3776,-5.374,-5.3884,-5.3901,-5.3891,-5.388,-5.39,-5.3902,-5.3927,-5.3907,-5.385,-5.3847,-5.3845,-5.3843,0,-5.3614,-5.3575,-5.3728,-5.3726,-5.3729,-5.3842,-5.384,-5.3924,-5.3902,-5.4015,-5.4038,-5.4004,-5.4093,-5.405,-5.4143,-5.4118,-5.4304,-5.4267,-5.4295,-5.4286,-5.4426,-5.4414,-5.4888,-5.4947,-5.4509,-5.4513,-5.4517,0,-5.3827,-5.3931,-5.394,-5.3992,-5.4007,-5.4092,-5.4138,-5.4075,-5.4126,-5.4165,-5.4245,-5.4325,-5.4386,-5.4533,-5.4518,-5.4588,-5.4552,-5.4714,-5.4562,-5.4579,-5.4555,-5.455,-5.456,-5.4745,-5.475,-5.4754,-5.4757,0,-5.4209,-5.4184,-5.4253,-5.4317,-5.4373,-5.442,-5.4459,-5.4507,-5.4445,-5.4508,-5.4597,-5.4644,-5.4738,-5.482,-5.4881,-5.489,-5.4815,-5.4805,-5.484,-5.4862,-5.4874,-5.487,-5.4379,-5.4794,-5.4791,-5.4788,-5.4786,-5.4784,-5.4493,-5.458,-5.46,-5.468,-5.4703,-5.4741,-5.482,-5.4807,-5.488,-5.4951,-5.4909,-5.5014,-5.5038,-5.5112,-5.5132,-5.5213,-5.5149,-5.5201,-5.5214,-5.5228,-5.5247,-5.4861,-5.5224,-5.5223,-5.5222,-5.5221,-5.522,0,-5.487,-5.4878,-5.4952,-5.5009,-5.5072,-5.4993,-5.5032,-5.5091,-5.5184,-5.5212,-5.5273,-5.5376,-5.5454,-5.5444,-5.5516,-5.5583,-5.555,-5.5604,-5.5599,-5.5602,-5.53,-5.5262,-5.5629,-5.5629,-5.5629,-5.5629,-5.5629,-5.5629,-5.5074,-5.5218,-5.5195,-5.5349,-5.5354,-5.5455,-5.5484,-5.5519,-5.5541,-5.566,-5.5724,-5.5716,-5.573,-5.5801,-5.587,-5.5865,-5.5896,-5.5963,-5.5946,-5.5664,-5.5624,-5.5585,-5.5549,-5.597,-5.5971,-5.6241,-5.6244,-5.6246]},{"header":{"parameterUnit":"m.s-1","parameterCategory":1,"la1":30.2991,"la2":30.254,"lo1":-89.0895,"lo2":-89.0444,"dy":0.0017,"dx":0.0017,"nx":28,"ny":28,"refTime":"2023-10-01T03:00:00:Z","depth":0,"parameterNumber":3,"parameterNumberName":"V-component_of_WINDS"},"data":[0,0,0,0,0,0,0,0,0,0,0,0,0,0,0,0,0,0,0,0,0,0,0,0,0,0,0,0,0,0,0,0,0,0,0,0,0,0,0,0,0,0,0,0,0,0,0,0,0,0,0,0,0,0,0,0,0,0,-3.1035,-3.1035,0,-3.1035,-3.1035,-3.1035,-3.1005,-3.1004,-3.1004,-3.1003,-3.1001,-3.1002,-3.1002,0,0,0,0,0,0,0,0,0,0,0,0,0,-3.1009,-3.1009,-3.1035,-3.1035,-3.1035,-3.1035,-3.1035,-3.1035,-3.1005,-3.1004,-3.1003,-3.1002,-3.1001,-3.1001,-3.1002,0,0,0,0,0,0,0,0,0,0,0,0,0,-3.1015,-3.101,-3.1035,-3.1021,-3.1019,-3.1035,-3.1035,-3.1035,-3.1005,-3.1004,-3.1003,-3.1002,-3.1,-3.1001,-3.1002,-3.1031,0,0,-3.1005,-3.1006,0,0,0,0,0,0,0,0,-3.1015,-3.1016,-3.1023,-3.1022,-3.102,-3.1019,-3.1024,-3.1034,-3.1006,-3.1011,-3.1003,-3.1001,-3.1008,-3.1008,-3.101,-3.1031,-3.1031,-3.1005,-3.1006,-3.1007,-3.1007,0,0,0,0,0,0,0,-3.1015,-3.1016,-3.1035,-3.1023,-3.1021,-3.1013,-3.1013,-3.1026,-3.1016,-3.101,-3.1008,-3.1008,-3.1007,-3.1009,-3.101,-3.1031,-3.1005,-3.1006,-3.1007,-3.1007,-3.1073,-3.1074,0,0,0,0,0,0,-3.1016,-3.1016,-3.1035,-3.1035,-3.1015,-3.1015,-3.1014,-3.102,-3.1015,-3.1013,-3.1009,-3.1007,-3.1008,-3.1009,-3.101,-3.1042,-3.1007,-3.1007,-3.1008,-3.1072,-3.1074,-3.1075,0,0,0,0,0,0,-3.1016,-3.1018,-3.1035,-3.1025,-3.1026,-3.1016,-3.1023,-3.1021,-3.1024,-3.1015,-3.1013,-3.1014,-3.1007,-3.1009,-3.1026,-3.1041,-3.1008,-3.1009,-3.1071,-3.1073,-3.1074,-3.1107,0,0,0,0,0,0,-3.1015,-3.1018,-3.103,-3.1025,-3.1027,-3.1052,-3.1024,-3.1022,-3.1026,-3.1022,-3.1019,-3.1017,-3.1007,-3.1024,-3.1027,-3.1042,-3.101,-3.1069,-3.1072,-3.1074,-3.1104,-3.111,-3.1114,0,0,0,0,0,-3.1014,-3.104,-3.1031,-3.1033,-3.1042,-3.1053,-3.1054,-3.1042,-3.1027,-3.1038,-3.1032,-3.1017,-3.104,-3.1027,-3.1029,-3.1045,-3.1068,-3.1071,-3.1074,-3.1102,-3.1109,-3.1114,0,0,0,0,0,0,-3.1047,-3.1039,-3.1029,-3.1054,-3.1054,-3.1048,-3.1062,-3.1049,-3.1054,-3.105,-3.1035,-3.1034,-3.1053,-3.1051,-3.1037,-3.1071,-3.1051,-3.1054,-3.1072,-3.1078,-3.1083,-3.1082,-3.101,0,0,0,0,0,-3.1057,-3.1067,-3.1059,-3.1082,-3.1082,-3.1072,-3.1077,-3.1067,-3.1067,-3.1067,-3.1062,-3.1062,-3.1068,-3.1073,-3.1079,-3.1104,-3.1102,-3.1116,-3.1121,-3.1125,-3.1127,-3.1138,-3.1144,-3.1083,-3.1083,-3.1083,0,0,-3.1077,-3.1074,-3.1082,-3.1088,-3.1087,-3.1097,-3.1072,-3.1085,-3.1091,-3.1068,-3.1084,-3.1081,-3.1079,-3.11,-3.1109,-3.1098,-3.1144,-3.1128,-3.1131,-3.1132,-3.1141,-3.1147,-3.1152,-3.1085,-3.1085,-3.1085,0,0,-3.112,-3.1119,-3.1137,-3.1136,-3.1135,-3.1128,-3.1132,-3.1127,-3.1124,-3.1139,-3.1122,-3.1129,-3.1142,-3.1141,-3.1142,-3.1182,-3.1168,-3.1185,-3.1209,-3.122,-3.1225,-3.1229,-3.1241,-3.1246,-3.1187,-3.1188,-3.1188,0,-3.1145,-3.116,-3.1147,-3.116,-3.1162,-3.1142,-3.1158,-3.1158,-3.1159,-3.1161,-3.115,-3.1163,-3.1161,-3.118,-3.119,-3.1192,-3.1195,-3.1185,-3.1225,-3.1229,-3.1233,-3.1244,-3.1249,-3.1189,-3.1189,-3.1189,-3.1189,0,-3.1191,-3.1201,-3.1215,-3.1216,-3.122,-3.1235,-3.1223,-3.1229,-3.1218,-3.1212,-3.1227,-3.1223,-3.1227,-3.1231,-3.1222,-3.1248,-3.1242,-3.1228,-3.1207,-3.1241,-3.1251,-3.1256,-3.1192,-3.1191,-3.1191,-3.119,0,0,-3.1254,-3.1246,-3.1251,-3.125,-3.1247,-3.1255,-3.1268,-3.1271,-3.1275,-3.1277,-3.1286,-3.1296,-3.1283,-3.1284,-3.1274,-3.1284,-3.1313,-3.1269,-3.1268,-3.1276,-3.134,-3.1349,-3.1355,-3.1304,-3.1305,-3.1306,-3.134,0,-3.1293,-3.1315,-3.1303,-3.1326,-3.1335,-3.1314,-3.1325,-3.1324,-3.1318,-3.1323,-3.1316,-3.1323,-3.1306,-3.1307,-3.1315,-3.1308,-3.1326,-3.1306,-3.1311,-3.1312,-3.1311,-3.1361,-3.1371,-3.1403,-3.1344,-3.1345,-3.1345,0,-3.1342,-3.1345,-3.1369,-3.1362,-3.1365,-3.1375,-3.1376,-3.1382,-3.138,-3.1374,-3.1375,-3.1362,-3.1373,-3.1353,-3.1367,-3.1353,-3.1355,-3.1352,-3.1353,-3.1352,-3.133,-3.136,-3.1413,-3.1418,-3.1352,-3.1351,-3.1351,0,-3.1383,-3.1393,-3.1408,-3.1408,-3.1401,-3.1408,-3.1405,-3.1401,-3.1404,-3.1405,-3.1406,-3.1408,-3.1409,-3.1411,-3.1398,-3.1385,-3.1413,-3.1393,-3.1408,-3.1408,-3.1414,-3.1413,-3.1467,-3.1417,-3.1417,-3.1417,-3.1417,0,-3.1428,-3.1443,-3.1426,-3.1435,-3.145,-3.1436,-3.1451,-3.1447,-3.1443,-3.145,-3.1433,-3.144,-3.1423,-3.1428,-3.1419,-3.143,-3.1431,-3.1426,-3.1423,-3.1427,-3.1427,-3.1427,-3.1424,-3.1418,-3.1418,-3.1418,-3.1418,0,-3.1476,-3.1466,-3.148,-3.1472,-3.147,-3.1482,-3.1474,-3.1481,-3.1474,-3.1483,-3.1484,-3.1472,-3.1476,-3.1464,-3.1467,-3.146,-3.1477,-3.1471,-3.1478,-3.1475,-3.149,-3.1488,-3.1544,-3.155,-3.1498,-3.1499,-3.1499,0,-3.1505,-3.1516,-3.1508,-3.1511,-3.1509,-3.1515,-3.1517,-3.1503,-3.1505,-3.1502,-3.1509,-3.1512,-3.1514,-3.1522,-3.1513,-3.1514,-3.1507,-3.1527,-3.1507,-3.151,-3.1505,-3.1504,-3.1504,-3.153,-3.1531,-3.1532,-3.1532,0,-3.1556,-3.155,-3.1553,-3.1554,-3.1557,-3.1558,-3.1557,-3.156,-3.1545,-3.1548,-3.1552,-3.1553,-3.1555,-3.1558,-3.1557,-3.1554,-3.154,-3.1538,-3.1541,-3.1545,-3.1547,-3.1544,-3.1487,-3.1537,-3.1536,-3.1536,-3.1536,-3.1536,-3.1594,-3.1602,-3.1597,-3.1601,-3.1599,-3.1598,-3.1604,-3.1596,-3.16,-3.16,-3.1591,-3.1597,-3.1592,-3.159,-3.1587,-3.159,-3.1581,-3.1587,-3.1588,-3.1589,-3.159,-3.1548,-3.1591,-3.159,-3.159,-3.159,-3.159,0,-3.1643,-3.1638,-3.1642,-3.1641,-3.1643,-3.163,-3.1628,-3.1631,-3.1636,-3.1633,-3.1634,-3.1638,-3.164,-3.1631,-3.1631,-3.1636,-3.1629,-3.1636,-3.1635,-3.1634,-3.1599,-3.1596,-3.1641,-3.1641,-3.1641,-3.1641,-3.1641,-3.1641,-3.1668,-3.168,-3.1673,-3.1683,-3.1678,-3.1683,-3.1683,-3.1681,-3.1679,-3.1683,-3.1685,-3.1679,-3.1673,-3.1672,-3.1673,-3.167,-3.167,-3.1679,-3.1674,-3.1642,-3.1637,-3.1632,-3.1628,-3.168,-3.168,-3.1708,-3.1708,-3.1708]}]]